CW7283 Weather Reports


time (UTC)temp
F
wind
direction
speed
knots
gust
knots
rain 1hr
in
rain 24hr
in
rain mn
in
humidity
%
barometer
mb
20260901040350 58 254 0.0 0.0 0.00 0.00 0.00 51 1016.5
20260901034842 59 171 0.0 0.0 0.00 0.00 0.00 51 1016.6
20260901033346 60 59 0.0 0.0 0.00 0.00 0.00 46 1016.4
20260901031845 62 60 0.0 0.0 0.00 0.00 0.00 44 1016.5
20260901030350 63 59 0.0 0.0 0.00 0.00 0.00 42 1016.3
20260901024904 64 51 0.0 0.0 0.00 0.00 0.00 42 1016.0
20260901023359 65 51 0.0 0.0 0.00 0.00 0.00 42 1015.9
20260901021833 67 49 0.0 0.0 0.00 0.00 0.00 40 1015.8
20260901020329 68 49 0.0 0.0 0.00 0.00 0.00 40 1015.8
20260901014839 70 49 0.0 0.0 0.00 0.00 0.00 35 1015.7
20260901013334 72 49 0.0 0.0 0.00 0.00 0.00 34 1015.4
20260901011829 73 49 0.0 0.0 0.00 0.00 0.00 33 1015.2
20260901010329 74 49 0.0 0.0 0.00 0.00 0.00 30 1015.3
20260901004842 75 49 0.0 0.0 0.00 0.00 0.00 29 1015.3
20260901003330 76 49 0.0 0.0 0.00 0.00 0.00 29 1015.3
20260901001832 77 48 0.0 0.0 0.00 0.00 0.00 28 1015.3
20260901000330 79 72 0.0 0.0 0.00 0.00 0.00 27 1015.3
20260831234827 78 97 0.0 0.0 0.00 0.00 0.00 28 1015.4
20260831233353 79 127 0.0 1.7 0.00 0.00 0.00 28 1015.6
20260831231837 79 330 0.0 0.0 0.00 0.00 0.00 30 1015.8
20260831230352 79 286 0.0 1.7 0.00 0.00 0.00 26 1015.6
20260831224826 79 98 0.0 1.7 0.00 0.00 0.00 27 1015.8
20260831223406 79 36 0.0 1.7 0.00 0.00 0.00 29 1015.9
20260831221837 78 336 0.0 1.7 0.00 0.00 0.00 27 1015.9
20260831220326 77 355 0.0 1.7 0.00 0.00 0.00 30 1016.0
20260831214832 78 288 0.0 1.7 0.00 0.00 0.00 26 1016.2
20260831213333 78 313 0.0 1.7 0.00 0.00 0.00 27 1016.4
20260831211835 77 242 0.0 1.7 0.00 0.00 0.00 27 1016.6
20260831210338 76 196 0.0 1.7 0.00 0.00 0.00 28 1016.8
20260831204856 76 198 0.0 1.7 0.00 0.00 0.00 28 1017.1
20260831203359 75 106 0.0 1.7 0.00 0.00 0.00 30 1017.2
20260831201829 75 87 0.0 2.6 0.00 0.00 0.00 31 1017.4
20260831200341 74 89 0.0 1.7 0.00 0.00 0.00 31 1017.5
20260831194843 74 217 0.9 2.6 0.00 0.00 0.00 30 1017.7
20260831193329 73 144 0.0 3.5 0.00 0.00 0.00 31 1017.7
20260831191853 72 186 0.0 1.7 0.00 0.00 0.00 33 1017.8
20260831190356 72 110 0.0 0.9 0.00 0.00 0.00 34 1017.9
20260831184846 70 298 0.0 1.7 0.00 0.00 0.00 34 1017.8
20260831183328 70 53 0.0 2.6 0.00 0.00 0.00 36 1018.2
20260831181826 70 144 0.0 1.7 0.00 0.00 0.00 35 1018.3
20260831180329 69 311 0.0 1.7 0.00 0.00 0.00 36 1018.4
20260831174837 69 118 0.0 2.6 0.00 0.00 0.00 38 1018.4
20260831173327 68 193 0.9 2.6 0.00 0.00 0.00 38 1018.5
20260831171847 67 5 0.0 1.7 0.00 0.00 0.00 40 1018.5
20260831170334 67 226 0.9 2.6 0.00 0.00 0.00 38 1018.6
20260831164831 67 108 0.0 1.7 0.00 0.00 0.00 39 1018.6
20260831163341 67 65 0.0 1.7 0.00 0.00 0.00 41 1018.5
20260831161844 66 105 0.0 1.7 0.00 0.00 0.00 40 1018.3
20260831160332 64 355 0.0 1.7 0.00 0.00 0.00 45 1018.4
20260831154838 62 344 0.0 1.7 0.00 0.00 0.00 44 1018.3
20260831153335 60 100 0.0 1.7 0.00 0.00 0.00 58 1018.3
20260831151845 56 100 0.0 1.7 0.00 0.00 0.00 60 1018.3
20260831150339 54 129 0.0 0.0 0.00 0.00 0.00 68 1018.3
20260831144830 53 143 0.0 0.0 0.00 0.00 0.00 66 1018.2
20260831143342 52 132 0.0 0.9 0.00 0.00 0.00 68 1018.2
20260831141828 50 126 0.0 0.0 0.00 0.00 0.00 68 1017.9
20260831140332 48 94 0.0 0.0 0.00 0.00 0.00 72 1017.7
20260831134839 46 329 0.0 0.0 0.00 0.00 0.00 77 1017.6
20260831133356 45 160 0.0 0.0 0.00 0.00 0.00 83 1017.4
20260831131832 44 160 0.0 0.0 0.00 0.00 0.00 84 1017.2
20260831130329 44 160 0.0 0.0 0.00 0.00 0.00 83 1017.1
20260831124837 44 160 0.0 0.0 0.00 0.00 0.00 84 1016.8
20260831123335 44 160 0.0 0.0 0.00 0.00 0.00 83 1016.5
20260831121833 44 136 0.0 1.7 0.00 0.00 0.00 85 1016.5
20260831120343 44 134 0.0 0.0 0.00 0.00 0.00 86 1016.4
20260831114829 44 134 0.0 1.7 0.00 0.00 0.00 87 1016.5
20260831113353 44 46 0.0 0.0 0.00 0.00 0.00 88 1016.4
20260831111837 43 318 0.0 0.0 0.00 0.00 0.00 93 1016.2
20260831110332 42 318 0.0 0.0 0.00 0.00 0.00 92 1016.2
20260831104826 42 315 0.0 0.0 0.00 0.00 0.00 91 1016.2
20260831103403 42 306 0.0 0.0 0.00 0.00 0.00 90 1015.8
20260831101839 43 306 0.0 0.0 0.00 0.00 0.00 91 1015.8
20260831100347 43 306 0.0 0.0 0.00 0.00 0.00 90 1015.4
20260831094840 43 306 0.0 0.0 0.00 0.00 0.00 89 1015.3
20260831093356 43 306 0.0 0.0 0.00 0.00 0.00 87 1015.2
20260831091850 44 303 0.0 0.0 0.00 0.00 0.00 88 1014.8
20260831090327 45 286 0.0 0.0 0.00 0.00 0.00 88 1014.7
20260831084857 44 286 0.0 0.0 0.00 0.00 0.00 88 1014.6
20260831083336 45 294 0.0 0.0 0.00 0.00 0.00 87 1014.6
20260831081838 45 301 0.0 1.7 0.00 0.00 0.00 87 1014.6
20260831080342 45 200 0.0 0.0 0.00 0.00 0.00 87 1014.3
20260831074851 46 200 0.0 0.0 0.00 0.00 0.00 86 1014.5
20260831073333 47 200 0.0 0.0 0.00 0.00 0.00 85 1014.5
20260831071828 47 200 0.0 0.0 0.00 0.00 0.00 85 1014.5
20260831070414 48 196 0.0 0.0 0.00 0.00 0.00 84 1014.3
20260831064829 48 196 0.0 0.0 0.00 0.00 0.00 83 1014.5
20260831063337 49 196 0.0 0.0 0.00 0.00 0.00 83 1014.4
20260831061839 49 196 0.0 0.9 0.00 0.00 0.00 83 1014.6
20260831060350 49 223 0.0 0.0 0.00 0.00 0.00 82 1014.5
20260831054840 50 147 0.0 0.0 0.00 0.00 0.00 81 1014.7
20260831053402 50 188 0.0 1.7 0.00 0.00 0.00 80 1014.8
20260831051838 51 307 0.0 0.0 0.00 0.00 0.00 80 1014.8
20260831050333 51 272 0.0 0.0 0.00 0.00 0.00 78 1014.8
20260831044919 52 163 0.0 0.0 0.00 0.00 0.00 77 1015.0
20260831043401 53 163 0.0 0.0 0.00 0.00 0.00 76 1015.0
20260831041903 54 213 0.0 0.0 0.00 0.00 0.00 74 1015.1